MSR785 HECA-EDDF

Flight info

Callsign MSR785
Flight time 3h 39m
Altitude 40000
Route CVO L617 NOZ L551 ANTAR DCT RIGRO DCT DISOR DCT LONTA UL608 DOLEV DCT VAMET DCT SIMBA DCT AKINI T161 DEBHI DEBHI1B
Aircraft A333/H-SDE3GHIJ2J3J5M1RVWXY/LB2D1

Departure

Time 2026-04-17 09:27
Airport Cairo International Airport (HECA)

Arrival

Time 2026-04-17 13:06
Airport Frankfurt Main Airport (EDDF)
Time Latitude Longitude Altitude Speed Heading
2026-04-17 08:57 30.10854 31.39847 391 ft 0 kts 75°
2026-04-17 09:15 30.10854 31.39846 391 ft 2 kts 75°
2026-04-17 09:15 30.10851 31.39829 391 ft 2 kts 77°
2026-04-17 09:15 30.10847 31.39812 391 ft 2 kts 74°
2026-04-17 09:15 30.10843 31.39792 391 ft 2 kts 94°
2026-04-17 09:16 30.10848 31.39773 391 ft 2 kts 124°
2026-04-17 09:16 30.10861 31.39758 391 ft 2 kts 152°
2026-04-17 09:16 30.10870 31.39754 391 ft 1 kts 166°
2026-04-17 09:16 30.10871 31.39753 391 ft 0 kts 165°
2026-04-17 09:18 30.10862 31.39756 391 ft 3 kts 165°
2026-04-17 09:19 30.10826 31.39767 391 ft 7 kts 163°
2026-04-17 09:19 30.10765 31.39787 391 ft 10 kts 165°
2026-04-17 09:19 30.10652 31.39823 391 ft 22 kts 164°
2026-04-17 09:19 30.10507 31.39870 392 ft 16 kts 153°
2026-04-17 09:20 30.10504 31.39982 392 ft 15 kts 50°
2026-04-17 09:20 30.10581 31.40085 392 ft 16 kts 48°
2026-04-17 09:20 30.10658 31.40188 392 ft 16 kts 49°
2026-04-17 09:20 30.10737 31.40292 392 ft 16 kts 49°
2026-04-17 09:21 30.10817 31.40398 392 ft 17 kts 49°
2026-04-17 09:21 30.10898 31.40505 392 ft 17 kts 48°
2026-04-17 09:21 30.10976 31.40608 392 ft 16 kts 49°
2026-04-17 09:21 30.11052 31.40708 392 ft 16 kts 48°
2026-04-17 09:22 30.11078 31.40824 392 ft 14 kts 109°
2026-04-17 09:22 30.11101 31.40931 392 ft 13 kts 51°
2026-04-17 09:22 30.11171 31.41026 392 ft 17 kts 49°
2026-04-17 09:22 30.11261 31.41145 392 ft 20 kts 49°
2026-04-17 09:23 30.11368 31.41288 392 ft 24 kts 49°
2026-04-17 09:23 30.11492 31.41454 392 ft 26 kts 49°
2026-04-17 09:23 30.11618 31.41625 392 ft 26 kts 49°
2026-04-17 09:23 30.11744 31.41788 392 ft 26 kts 50°
2026-04-17 09:24 30.11865 31.41949 392 ft 25 kts 49°
2026-04-17 09:24 30.11984 31.42108 392 ft 24 kts 49°
2026-04-17 09:24 30.12102 31.42265 392 ft 24 kts 49°
2026-04-17 09:24 30.12215 31.42416 392 ft 23 kts 49°
2026-04-17 09:25 30.12300 31.42528 392 ft 16 kts 49°
2026-04-17 09:25 30.12377 31.42631 392 ft 15 kts 49°
2026-04-17 09:25 30.12450 31.42731 392 ft 15 kts 55°
2026-04-17 09:25 30.12476 31.42849 393 ft 14 kts 102°
2026-04-17 09:26 30.12411 31.42926 393 ft 12 kts 160°
2026-04-17 09:26 30.12326 31.42928 393 ft 11 kts 192°
2026-04-17 09:26 30.12232 31.42831 393 ft 40 kts 229°
2026-04-17 09:26 30.11886 31.42371 393 ft 107 kts 227°
2026-04-17 09:27 30.11257 31.41537 408 ft 159 kts 226°
2026-04-17 09:27 30.10508 31.40555 1180 ft 152 kts 227°
2026-04-17 09:27 30.10020 31.39445 1881 ft 162 kts 260°
2026-04-17 09:27 30.10276 31.38156 2510 ft 179 kts 289°
2026-04-17 09:28 30.10905 31.36736 2800 ft 204 kts 294°
2026-04-17 09:28 30.11801 31.35401 3055 ft 220 kts 319°
2026-04-17 09:28 30.13189 31.34350 3306 ft 240 kts 318°
2026-04-17 09:28 30.14577 31.33033 3757 ft 258 kts 314°
2026-04-17 09:29 30.16047 31.31514 4272 ft 275 kts 313°
2026-04-17 09:29 30.17540 31.29931 5009 ft 282 kts 312°
2026-04-17 09:29 30.19031 31.28334 5787 ft 287 kts 311°
2026-04-17 09:29 30.20558 31.26695 6590 ft 291 kts 311°
2026-04-17 09:30 30.22128 31.25009 7403 ft 295 kts 310°
2026-04-17 09:30 30.23697 31.23322 8145 ft 299 kts 309°
2026-04-17 09:30 30.25260 31.21638 8800 ft 305 kts 309°
2026-04-17 09:30 30.26891 31.19884 9545 ft 309 kts 308°
2026-04-17 09:31 30.28526 31.18120 10232 ft 315 kts 307°
2026-04-17 09:31 30.30211 31.16297 10573 ft 335 kts 308°
2026-04-17 09:31 30.32006 31.14363 10868 ft 354 kts 308°
2026-04-17 09:31 30.33873 31.12349 11144 ft 372 kts 308°
2026-04-17 09:32 30.35868 31.10196 11452 ft 388 kts 309°
2026-04-17 09:32 30.37875 31.08036 12118 ft 391 kts 308°
2026-04-17 09:32 30.39883 31.05866 12781 ft 394 kts 308°
2026-04-17 09:32 30.41932 31.03650 13387 ft 398 kts 308°
2026-04-17 09:33 30.43982 31.01434 14081 ft 400 kts 307°
2026-04-17 09:33 30.46024 30.99225 14807 ft 399 kts 308°
2026-04-17 09:33 30.48058 30.97026 15478 ft 400 kts 307°
2026-04-17 09:33 30.50113 30.94797 16051 ft 403 kts 307°
2026-04-17 09:34 30.52166 30.92570 16637 ft 406 kts 307°
2026-04-17 09:34 30.54237 30.90324 17286 ft 406 kts 307°
2026-04-17 09:34 30.56322 30.88060 17822 ft 409 kts 307°
2026-04-17 09:34 30.58419 30.85782 18416 ft 410 kts 307°
2026-04-17 09:35 30.60503 30.83516 18995 ft 411 kts 307°
2026-04-17 09:35 30.62594 30.81243 19558 ft 412 kts 307°
2026-04-17 09:35 30.64699 30.78949 20012 ft 416 kts 307°
2026-04-17 09:35 30.66837 30.76621 20590 ft 416 kts 307°
2026-04-17 09:36 30.68935 30.74336 21095 ft 417 kts 307°
2026-04-17 09:36 30.71069 30.72007 21533 ft 420 kts 307°
2026-04-17 09:36 30.73223 30.69658 22032 ft 421 kts 307°
2026-04-17 09:36 30.75347 30.67339 22465 ft 422 kts 307°
2026-04-17 09:37 30.77501 30.64985 22871 ft 425 kts 307°
2026-04-17 09:37 30.79687 30.62598 23355 ft 425 kts 307°
2026-04-17 09:37 30.81818 30.60265 23790 ft 426 kts 306°
2026-04-17 09:37 30.84012 30.57860 24137 ft 429 kts 307°
2026-04-17 09:38 30.86210 30.55454 24599 ft 430 kts 307°
2026-04-17 09:38 30.88369 30.53087 24985 ft 431 kts 306°
2026-04-17 09:38 30.90558 30.50687 25396 ft 432 kts 306°
2026-04-17 09:38 30.92758 30.48270 25729 ft 434 kts 306°
2026-04-17 09:39 30.94961 30.45853 26214 ft 433 kts 306°
2026-04-17 09:39 30.97170 30.43423 26459 ft 438 kts 306°
2026-04-17 09:39 30.99379 30.40993 26890 ft 437 kts 306°
2026-04-17 09:39 31.01601 30.38549 27292 ft 438 kts 306°
2026-04-17 09:40 31.03820 30.36103 27615 ft 440 kts 306°
2026-04-17 09:40 31.06067 30.33627 28014 ft 440 kts 306°
2026-04-17 09:40 31.08260 30.31052 28356 ft 431 kts 298°
2026-04-17 09:40 31.09745 30.28084 28548 ft 413 kts 283°
2026-04-17 09:41 31.10639 30.24873 28958 ft 409 kts 280°
2026-04-17 09:41 31.11525 30.21650 29313 ft 408 kts 279°
2026-04-17 09:41 31.12395 30.18475 29724 ft 407 kts 280°
2026-04-17 09:41 31.13261 30.15309 30206 ft 404 kts 279°
2026-04-17 09:42 31.14145 30.12062 30516 ft 405 kts 279°
2026-04-17 09:42 31.15012 30.08871 30890 ft 405 kts 280°
2026-04-17 09:42 31.15869 30.05720 31351 ft 402 kts 280°
2026-04-17 09:42 31.16716 30.02601 31686 ft 402 kts 280°
2026-04-17 09:43 31.17566 29.99471 32082 ft 400 kts 279°
2026-04-17 09:43 31.18708 29.96433 32420 ft 415 kts 293°
2026-04-17 09:43 31.20695 29.93797 32733 ft 437 kts 309°
2026-04-17 09:43 31.23389 29.91858 33032 ft 460 kts 324°
2026-04-17 09:44 31.26349 29.90246 33404 ft 455 kts 322°
2026-04-17 09:44 31.29341 29.88446 33742 ft 452 kts 321°
2026-04-17 09:44 31.32381 29.86571 34017 ft 452 kts 320°
2026-04-17 09:44 31.35371 29.84704 34211 ft 454 kts 321°
2026-04-17 09:45 31.38449 29.82781 34484 ft 454 kts 321°
2026-04-17 09:45 31.41465 29.80892 34783 ft 453 kts 321°
2026-04-17 09:45 31.44488 29.78995 35002 ft 454 kts 321°
2026-04-17 09:45 31.47514 29.77097 35574 ft 452 kts 321°
2026-04-17 09:46 31.50539 29.75198 35890 ft 451 kts 321°
2026-04-17 09:46 31.53490 29.73342 36131 ft 451 kts 321°
2026-04-17 09:46 31.56544 29.71422 36367 ft 451 kts 321°
2026-04-17 09:46 31.59557 29.69527 36590 ft 452 kts 321°
2026-04-17 09:47 31.62552 29.67639 36742 ft 453 kts 321°
2026-04-17 09:47 31.65540 29.65756 37018 ft 451 kts 322°
2026-04-17 09:47 31.68543 29.63862 37220 ft 452 kts 322°
2026-04-17 09:47 31.71499 29.61996 37441 ft 452 kts 321°
2026-04-17 09:48 31.74471 29.60119 37634 ft 451 kts 322°
2026-04-17 09:48 31.77448 29.58236 37779 ft 452 kts 322°
2026-04-17 09:48 31.80449 29.56336 37925 ft 453 kts 322°
2026-04-17 09:48 31.83473 29.54424 38098 ft 453 kts 322°
2026-04-17 09:49 31.86451 29.52535 38244 ft 453 kts 322°
2026-04-17 09:49 31.89450 29.50634 38391 ft 454 kts 322°
2026-04-17 09:49 31.92514 29.48691 38521 ft 454 kts 323°
2026-04-17 09:49 31.95496 29.46796 38703 ft 455 kts 323°
2026-04-17 09:50 31.98494 29.44893 38909 ft 454 kts 323°
2026-04-17 09:50 32.01539 29.42957 39064 ft 454 kts 323°
2026-04-17 09:50 32.04602 29.41006 39199 ft 455 kts 323°
2026-04-17 09:50 32.07594 29.39100 39313 ft 455 kts 323°
2026-04-17 09:51 32.10579 29.37197 39466 ft 454 kts 323°
2026-04-17 09:51 32.13490 29.35342 39576 ft 454 kts 323°
2026-04-17 09:51 32.16522 29.33405 39702 ft 454 kts 323°
2026-04-17 09:51 32.19474 29.31517 39668 ft 458 kts 323°
2026-04-17 09:52 32.25541 29.27636 39646 ft 462 kts 323°
2026-04-17 09:52 32.31564 29.23774 39676 ft 465 kts 323°
2026-04-17 09:53 32.37655 29.19863 39706 ft 467 kts 323°
2026-04-17 09:53 32.43683 29.15986 39668 ft 470 kts 324°
2026-04-17 09:54 32.49449 29.12271 39662 ft 471 kts 323°
2026-04-17 09:54 32.55219 29.08550 39676 ft 473 kts 324°
2026-04-17 09:55 32.61018 29.04803 39654 ft 474 kts 324°
2026-04-17 09:55 32.66899 29.00998 39658 ft 475 kts 324°
2026-04-17 09:56 32.72757 28.97202 39661 ft 476 kts 324°
2026-04-17 09:56 32.78734 28.93324 39666 ft 476 kts 324°
2026-04-17 09:57 32.84749 28.89414 39686 ft 477 kts 324°
2026-04-17 09:57 32.90794 28.85479 39672 ft 477 kts 324°
2026-04-17 09:58 32.96840 28.81537 39666 ft 477 kts 324°
2026-04-17 09:58 33.02896 28.77582 39652 ft 479 kts 324°
2026-04-17 09:59 33.09038 28.73565 39666 ft 479 kts 325°
2026-04-17 09:59 33.15121 28.69581 39669 ft 479 kts 325°
2026-04-17 10:00 33.21303 28.65525 39664 ft 479 kts 324°
2026-04-17 10:00 33.27430 28.61498 39657 ft 479 kts 325°
2026-04-17 10:01 33.33628 28.57416 39651 ft 480 kts 325°
2026-04-17 10:01 33.39759 28.53374 39650 ft 480 kts 325°
2026-04-17 10:02 33.45987 28.49260 39643 ft 480 kts 325°
2026-04-17 10:02 33.52174 28.45168 39647 ft 481 kts 326°
2026-04-17 10:03 33.58410 28.41033 39660 ft 481 kts 326°
2026-04-17 10:03 33.64674 28.36877 39671 ft 481 kts 326°
2026-04-17 10:04 33.70874 28.32755 39702 ft 483 kts 326°
2026-04-17 10:04 33.77232 28.28521 39668 ft 484 kts 326°
2026-04-17 10:05 33.83436 28.24359 39626 ft 484 kts 325°
2026-04-17 10:05 33.89698 28.20133 39660 ft 482 kts 326°
2026-04-17 10:06 33.95835 28.15984 39659 ft 483 kts 326°
2026-04-17 10:06 34.02047 28.11777 39657 ft 483 kts 326°
2026-04-17 10:07 34.08260 28.07563 39648 ft 484 kts 326°
2026-04-17 10:07 34.14321 28.03446 39652 ft 485 kts 326°
2026-04-17 10:08 34.20570 27.99191 39667 ft 485 kts 326°
2026-04-17 10:08 34.26898 27.94877 39651 ft 485 kts 326°
2026-04-17 10:09 34.32974 27.90727 39643 ft 486 kts 326°
2026-04-17 10:09 34.39119 27.86523 39659 ft 486 kts 327°
2026-04-17 10:10 34.45006 27.82490 39673 ft 485 kts 326°
2026-04-17 10:11 34.53862 27.76407 39671 ft 486 kts 327°
2026-04-17 10:11 34.59988 27.72178 39658 ft 486 kts 327°
2026-04-17 10:12 34.66105 27.67945 39647 ft 487 kts 327°
2026-04-17 10:12 34.72033 27.63839 39655 ft 486 kts 327°
2026-04-17 10:13 34.77902 27.59765 39671 ft 482 kts 327°
2026-04-17 10:13 34.83721 27.55718 39657 ft 483 kts 327°
2026-04-17 10:14 34.89590 27.51630 39650 ft 484 kts 327°
2026-04-17 10:14 34.95429 27.47558 39665 ft 483 kts 327°
2026-04-17 10:15 35.01249 27.43492 39656 ft 484 kts 327°
2026-04-17 10:15 35.07081 27.39411 39656 ft 484 kts 327°
2026-04-17 10:16 35.12972 27.35280 39655 ft 484 kts 328°
2026-04-17 10:16 35.18803 27.31184 39670 ft 485 kts 327°
2026-04-17 10:17 35.24658 27.27068 39680 ft 485 kts 327°
2026-04-17 10:17 35.30499 27.22952 39683 ft 484 kts 327°
2026-04-17 10:18 35.36359 27.18817 39683 ft 483 kts 327°
2026-04-17 10:18 35.42226 27.14683 39682 ft 485 kts 329°
2026-04-17 10:19 35.48384 27.11203 39689 ft 487 kts 333°
2026-04-17 10:19 35.54534 27.07754 39702 ft 487 kts 333°
2026-04-17 10:20 35.60721 27.04269 39688 ft 487 kts 333°
2026-04-17 10:20 35.66875 27.00794 39701 ft 488 kts 333°
2026-04-17 10:21 35.73066 26.97295 39705 ft 487 kts 333°
2026-04-17 10:21 35.79194 26.93823 39725 ft 486 kts 333°
2026-04-17 10:22 35.85396 26.90305 39728 ft 486 kts 333°
2026-04-17 10:22 35.91517 26.86806 39725 ft 486 kts 334°
2026-04-17 10:23 35.97697 26.83265 39721 ft 486 kts 333°
2026-04-17 10:23 36.03799 26.79767 39712 ft 486 kts 333°
2026-04-17 10:24 36.09972 26.76219 39732 ft 487 kts 333°
2026-04-17 10:24 36.16119 26.72680 39733 ft 486 kts 334°
2026-04-17 10:25 36.22267 26.69137 39730 ft 486 kts 334°
2026-04-17 10:25 36.28387 26.65601 39731 ft 487 kts 334°
2026-04-17 10:26 36.34529 26.62045 39731 ft 485 kts 334°
2026-04-17 10:26 36.40633 26.58504 39732 ft 485 kts 334°
2026-04-17 10:27 36.46785 26.54929 39728 ft 485 kts 334°
2026-04-17 10:27 36.52890 26.51377 39735 ft 486 kts 334°
2026-04-17 10:28 36.59029 26.47793 39747 ft 486 kts 334°
2026-04-17 10:28 36.65198 26.44183 39725 ft 487 kts 334°
2026-04-17 10:29 36.71333 26.40587 39731 ft 486 kts 334°
2026-04-17 10:29 36.77433 26.37006 39746 ft 486 kts 334°
2026-04-17 10:30 36.83576 26.33394 39757 ft 487 kts 333°
2026-04-17 10:30 36.89714 26.29777 39755 ft 486 kts 334°
2026-04-17 10:31 36.95832 26.26165 39742 ft 486 kts 334°
2026-04-17 10:31 37.01919 26.22499 39754 ft 486 kts 333°
2026-04-17 10:32 37.08021 26.18777 39754 ft 486 kts 333°
2026-04-17 10:32 37.14111 26.15057 39756 ft 487 kts 333°
2026-04-17 10:33 37.20204 26.11327 39760 ft 487 kts 333°
2026-04-17 10:33 37.26305 26.07587 39759 ft 486 kts 333°
2026-04-17 10:34 37.32382 26.03855 39763 ft 487 kts 333°
2026-04-17 10:34 37.38482 26.00101 39776 ft 487 kts 333°
2026-04-17 10:35 37.44576 25.96344 39783 ft 485 kts 333°
2026-04-17 10:35 37.50620 25.92611 39769 ft 486 kts 333°
2026-04-17 10:36 37.56726 25.88832 39788 ft 486 kts 333°
2026-04-17 10:36 37.62586 25.84587 39794 ft 483 kts 326°
2026-04-17 10:37 37.68270 25.80001 39770 ft 486 kts 327°
2026-04-17 10:37 37.73948 25.75438 39803 ft 484 kts 327°
2026-04-17 10:38 37.79643 25.70855 39810 ft 484 kts 327°
2026-04-17 10:38 37.85315 25.66283 39801 ft 484 kts 327°
2026-04-17 10:39 37.91009 25.61683 39797 ft 484 kts 327°
2026-04-17 10:39 37.96702 25.57077 39825 ft 484 kts 327°
2026-04-17 10:40 38.02350 25.52499 39819 ft 485 kts 327°
2026-04-17 10:40 38.08058 25.47863 39819 ft 483 kts 327°
2026-04-17 10:41 38.13728 25.43249 39841 ft 483 kts 327°
2026-04-17 10:41 38.19372 25.38648 39833 ft 482 kts 327°
2026-04-17 10:42 38.25024 25.34032 39845 ft 481 kts 327°
2026-04-17 10:42 38.30656 25.29422 39862 ft 482 kts 327°
2026-04-17 10:43 38.36313 25.24785 39843 ft 482 kts 327°
2026-04-17 10:43 38.41968 25.20141 39853 ft 482 kts 327°
2026-04-17 10:44 38.47623 25.15487 39856 ft 482 kts 327°
2026-04-17 10:44 38.53240 25.10855 39887 ft 481 kts 327°
2026-04-17 10:45 38.58843 25.06227 39883 ft 479 kts 327°
2026-04-17 10:45 38.64442 25.01593 39853 ft 480 kts 327°
2026-04-17 10:46 38.70081 24.96918 39892 ft 482 kts 327°
2026-04-17 10:46 38.75692 24.92257 39891 ft 479 kts 327°
2026-04-17 10:47 38.81295 24.87593 39887 ft 481 kts 327°
2026-04-17 10:47 38.87163 24.82699 39893 ft 481 kts 327°
2026-04-17 10:48 38.93038 24.77790 39888 ft 479 kts 327°
2026-04-17 10:48 38.98983 24.72812 39907 ft 480 kts 327°
2026-04-17 10:49 39.04856 24.67886 39939 ft 478 kts 327°
2026-04-17 10:49 39.10728 24.62949 39926 ft 477 kts 327°
2026-04-17 10:50 39.16495 24.58090 39912 ft 478 kts 327°
2026-04-17 10:50 39.22336 24.53160 39931 ft 478 kts 327°
2026-04-17 10:51 39.27927 24.48431 39953 ft 475 kts 327°
2026-04-17 10:51 39.33833 24.43426 39929 ft 475 kts 327°
2026-04-17 10:52 39.39583 24.38544 39940 ft 475 kts 327°
2026-04-17 10:52 39.45175 24.33787 39968 ft 474 kts 326°
2026-04-17 10:53 39.50971 24.28845 39969 ft 474 kts 326°
2026-04-17 10:53 39.56699 24.23952 39970 ft 473 kts 326°
2026-04-17 10:54 39.62537 24.18954 39954 ft 472 kts 326°
2026-04-17 10:54 39.68260 24.14046 39981 ft 471 kts 327°
2026-04-17 10:55 39.74092 24.09034 39966 ft 470 kts 326°
2026-04-17 10:55 39.79704 24.04201 39965 ft 471 kts 326°
2026-04-17 10:56 39.85247 23.99417 39948 ft 470 kts 326°
2026-04-17 10:56 39.90775 23.94637 39973 ft 470 kts 326°
2026-04-17 10:57 39.96320 23.89833 39952 ft 468 kts 326°
2026-04-17 10:57 40.01799 23.85078 39937 ft 468 kts 326°
2026-04-17 10:58 40.07289 23.80303 39953 ft 469 kts 326°
2026-04-17 10:58 40.12908 23.75406 39956 ft 470 kts 326°
2026-04-17 10:59 40.18592 23.70442 39947 ft 471 kts 326°
2026-04-17 10:59 40.24266 23.65477 39947 ft 470 kts 326°
2026-04-17 11:00 40.29841 23.60589 39975 ft 469 kts 327°
2026-04-17 11:00 40.35437 23.55672 39956 ft 468 kts 327°
2026-04-17 11:01 40.40998 23.50777 39978 ft 467 kts 327°
2026-04-17 11:01 40.46377 23.46032 39982 ft 467 kts 327°
2026-04-17 11:02 40.51805 23.41234 39985 ft 468 kts 327°
2026-04-17 11:02 40.57288 23.36378 39995 ft 468 kts 327°
2026-04-17 11:03 40.62971 23.31333 39989 ft 466 kts 326°
2026-04-17 11:03 40.68696 23.26244 39984 ft 465 kts 326°
2026-04-17 11:04 40.74569 23.21009 39983 ft 466 kts 326°
2026-04-17 11:04 40.80230 23.15953 39975 ft 466 kts 326°
2026-04-17 11:05 40.85918 23.10863 39970 ft 467 kts 326°
2026-04-17 11:05 40.91759 23.05624 39972 ft 465 kts 326°
2026-04-17 11:06 40.97254 23.00684 39976 ft 463 kts 326°
2026-04-17 11:06 41.02686 22.95792 39973 ft 464 kts 326°
2026-04-17 11:07 41.08082 22.90922 39968 ft 465 kts 326°
2026-04-17 11:07 41.13476 22.86045 39965 ft 465 kts 326°
2026-04-17 11:08 41.18895 22.81134 39968 ft 465 kts 326°
2026-04-17 11:08 41.24242 22.76220 39961 ft 463 kts 322°
2026-04-17 11:09 41.28901 22.69768 39985 ft 463 kts 312°
2026-04-17 11:09 41.33286 22.63333 39979 ft 463 kts 313°
2026-04-17 11:10 41.39798 22.53777 39990 ft 463 kts 313°
2026-04-17 11:10 41.44130 22.47406 39998 ft 463 kts 313°
2026-04-17 11:11 41.48423 22.41078 40004 ft 462 kts 313°
2026-04-17 11:11 41.52736 22.34710 40007 ft 460 kts 312°
2026-04-17 11:12 41.57009 22.28383 39996 ft 461 kts 312°
2026-04-17 11:12 41.61330 22.21973 39989 ft 462 kts 312°
2026-04-17 11:13 41.65625 22.15587 39984 ft 461 kts 312°
2026-04-17 11:13 41.69900 22.09219 39984 ft 460 kts 312°
2026-04-17 11:14 41.74173 22.02838 39985 ft 460 kts 312°
2026-04-17 11:14 41.78439 21.96456 39989 ft 459 kts 312°
2026-04-17 11:15 41.82690 21.90082 39996 ft 460 kts 312°
2026-04-17 11:15 41.86957 21.83669 40003 ft 461 kts 312°
2026-04-17 11:16 41.91205 21.77270 40000 ft 459 kts 312°
2026-04-17 11:16 41.95438 21.70882 40009 ft 458 kts 312°
2026-04-17 11:17 41.99696 21.64441 39999 ft 459 kts 312°
2026-04-17 11:17 42.03920 21.58038 40011 ft 458 kts 312°
2026-04-17 11:18 42.08307 21.51373 40018 ft 457 kts 312°
2026-04-17 11:18 42.12736 21.44629 40030 ft 458 kts 312°
2026-04-17 11:19 42.17120 21.37886 40042 ft 457 kts 311°
2026-04-17 11:19 42.21403 21.31092 40042 ft 456 kts 310°
2026-04-17 11:20 42.25509 21.24577 40048 ft 456 kts 310°
2026-04-17 11:20 42.29641 21.18004 40047 ft 456 kts 310°
2026-04-17 11:21 42.33747 21.11459 40052 ft 456 kts 310°
2026-04-17 11:21 42.37842 21.04914 40078 ft 456 kts 311°
2026-04-17 11:22 42.41958 20.98324 40086 ft 456 kts 311°
2026-04-17 11:22 42.46036 20.91780 40075 ft 455 kts 310°
2026-04-17 11:23 42.50104 20.85238 40059 ft 454 kts 310°
2026-04-17 11:23 42.54196 20.78642 40069 ft 454 kts 310°
2026-04-17 11:24 42.58258 20.72080 40074 ft 454 kts 310°
2026-04-17 11:24 42.62316 20.65509 40066 ft 455 kts 310°
2026-04-17 11:25 42.66401 20.58879 40059 ft 454 kts 310°
2026-04-17 11:25 42.70444 20.52304 40077 ft 453 kts 310°
2026-04-17 11:26 42.74484 20.45718 40071 ft 452 kts 310°
2026-04-17 11:26 42.78522 20.39121 40085 ft 453 kts 310°
2026-04-17 11:27 42.82557 20.32515 40097 ft 452 kts 310°
2026-04-17 11:27 42.87182 20.26712 40124 ft 452 kts 320°
2026-04-17 11:28 42.92006 20.21167 40105 ft 451 kts 320°
2026-04-17 11:28 42.96775 20.15633 40126 ft 450 kts 320°
2026-04-17 11:29 43.01570 20.10053 40113 ft 449 kts 319°
2026-04-17 11:29 43.06338 20.04492 40115 ft 450 kts 319°
2026-04-17 11:30 43.11099 19.98928 40121 ft 450 kts 320°
2026-04-17 11:30 43.15866 19.93346 40119 ft 450 kts 320°
2026-04-17 11:31 43.20641 19.87743 40120 ft 449 kts 319°
2026-04-17 11:31 43.25402 19.82142 40114 ft 448 kts 319°
2026-04-17 11:32 43.30117 19.76584 40113 ft 448 kts 319°
2026-04-17 11:32 43.34843 19.71002 40112 ft 448 kts 319°
2026-04-17 11:33 43.39585 19.65388 40118 ft 447 kts 319°
2026-04-17 11:33 43.44288 19.59810 40114 ft 446 kts 320°
2026-04-17 11:34 43.48981 19.54230 40121 ft 446 kts 320°
2026-04-17 11:34 43.53689 19.48622 40110 ft 446 kts 320°
2026-04-17 11:35 43.58370 19.43034 40135 ft 445 kts 319°
2026-04-17 11:35 43.63069 19.37412 40117 ft 444 kts 319°
2026-04-17 11:36 43.67742 19.31808 40123 ft 444 kts 319°
2026-04-17 11:36 43.72413 19.26195 40129 ft 444 kts 319°
2026-04-17 11:37 43.77056 19.20605 40116 ft 443 kts 319°
2026-04-17 11:37 43.81709 19.14990 40122 ft 443 kts 319°
2026-04-17 11:38 43.86370 19.09353 40122 ft 442 kts 319°
2026-04-17 11:38 43.91013 19.03726 40120 ft 442 kts 319°
2026-04-17 11:39 43.95607 18.98146 40133 ft 440 kts 319°
2026-04-17 11:39 44.00231 18.92518 40103 ft 440 kts 319°
2026-04-17 11:40 44.04823 18.86917 40108 ft 441 kts 319°
2026-04-17 11:40 44.09433 18.81282 40120 ft 441 kts 319°
2026-04-17 11:41 44.14029 18.75650 40143 ft 441 kts 319°
2026-04-17 11:41 44.18635 18.69996 40128 ft 441 kts 319°
2026-04-17 11:42 44.23229 18.64345 40142 ft 441 kts 319°
2026-04-17 11:42 44.27816 18.58687 40139 ft 438 kts 319°
2026-04-17 11:43 44.32382 18.53045 40134 ft 440 kts 319°
2026-04-17 11:43 44.36984 18.47347 40138 ft 439 kts 319°
2026-04-17 11:44 44.41538 18.41694 40137 ft 439 kts 319°
2026-04-17 11:44 44.46113 18.36004 40145 ft 438 kts 319°
2026-04-17 11:45 44.50666 18.30331 40125 ft 438 kts 318°
2026-04-17 11:45 44.55211 18.24651 40121 ft 437 kts 318°
2026-04-17 11:46 44.59766 18.18949 40117 ft 438 kts 318°
2026-04-17 11:46 44.64294 18.13267 40124 ft 438 kts 319°
2026-04-17 11:47 44.68835 18.07556 40113 ft 438 kts 318°
2026-04-17 11:47 44.73381 18.01828 40119 ft 437 kts 318°
2026-04-17 11:48 44.77913 17.96104 40118 ft 437 kts 319°
2026-04-17 11:48 44.82438 17.90377 40131 ft 435 kts 319°
2026-04-17 11:49 44.86954 17.84648 40121 ft 436 kts 318°
2026-04-17 11:49 44.91441 17.78943 40115 ft 436 kts 318°
2026-04-17 11:50 44.95961 17.73183 40119 ft 436 kts 318°
2026-04-17 11:50 45.00472 17.67423 40126 ft 437 kts 319°
2026-04-17 11:51 45.04959 17.61680 40124 ft 435 kts 319°
2026-04-17 11:51 45.09449 17.55923 40115 ft 435 kts 319°
2026-04-17 11:52 45.13930 17.50161 40137 ft 435 kts 319°
2026-04-17 11:52 45.18421 17.44375 40147 ft 435 kts 319°
2026-04-17 11:53 45.22883 17.38615 40121 ft 434 kts 318°
2026-04-17 11:53 45.27364 17.32815 40126 ft 435 kts 318°
2026-04-17 11:54 45.31819 17.27038 40148 ft 434 kts 318°
2026-04-17 11:54 45.36299 17.21212 40149 ft 435 kts 318°
2026-04-17 11:55 45.40747 17.15419 40119 ft 434 kts 318°
2026-04-17 11:55 45.45195 17.09611 40137 ft 434 kts 318°
2026-04-17 11:56 45.49665 17.03762 40144 ft 435 kts 318°
2026-04-17 11:56 45.54092 16.97955 40132 ft 435 kts 318°
2026-04-17 11:57 45.58537 16.92113 40125 ft 433 kts 318°
2026-04-17 11:57 45.62960 16.86285 40134 ft 433 kts 318°
2026-04-17 11:58 45.67394 16.80430 40138 ft 432 kts 318°
2026-04-17 11:58 45.71799 16.74600 40133 ft 433 kts 318°
2026-04-17 11:59 45.76225 16.68729 40145 ft 433 kts 318°
2026-04-17 11:59 45.80644 16.62854 40157 ft 432 kts 318°
2026-04-17 12:00 45.85059 16.56970 40132 ft 432 kts 318°
2026-04-17 12:00 45.89438 16.51123 40159 ft 431 kts 318°
2026-04-17 12:01 45.93856 16.45210 40147 ft 431 kts 318°
2026-04-17 12:01 45.98209 16.39369 40139 ft 430 kts 318°
2026-04-17 12:02 46.02600 16.33464 40162 ft 431 kts 317°
2026-04-17 12:02 46.06966 16.27580 40164 ft 431 kts 317°
2026-04-17 12:03 46.11356 16.21652 40153 ft 430 kts 317°
2026-04-17 12:03 46.15712 16.15754 40160 ft 432 kts 317°
2026-04-17 12:04 46.20109 16.09787 40168 ft 431 kts 317°
2026-04-17 12:04 46.24453 16.03879 40164 ft 431 kts 317°
2026-04-17 12:05 46.28811 15.97939 40170 ft 431 kts 317°
2026-04-17 12:05 46.33184 15.91963 40167 ft 431 kts 317°
2026-04-17 12:06 46.37590 15.85929 40173 ft 431 kts 317°
2026-04-17 12:06 46.42373 15.79362 40180 ft 431 kts 317°
2026-04-17 12:07 46.47153 15.72783 40177 ft 430 kts 317°
2026-04-17 12:07 46.51936 15.66186 40187 ft 430 kts 317°
2026-04-17 12:08 46.56572 15.59772 40193 ft 431 kts 317°
2026-04-17 12:08 46.60901 15.53768 40191 ft 430 kts 317°
2026-04-17 12:09 46.65235 15.47745 40182 ft 431 kts 317°
2026-04-17 12:09 46.69545 15.41739 40181 ft 431 kts 317°
2026-04-17 12:10 46.73878 15.35689 40169 ft 430 kts 317°
2026-04-17 12:10 46.78191 15.29582 40169 ft 430 kts 315°
2026-04-17 12:11 46.82341 15.23304 40181 ft 429 kts 314°
2026-04-17 12:12 46.88543 15.13909 40179 ft 429 kts 315°
2026-04-17 12:12 46.92937 15.07235 40183 ft 426 kts 315°
2026-04-17 12:13 46.97427 15.00399 40185 ft 427 kts 314°
2026-04-17 12:13 47.01862 14.93626 40194 ft 427 kts 315°
2026-04-17 12:14 47.06194 14.86995 40206 ft 429 kts 315°
2026-04-17 12:14 47.10609 14.80220 40227 ft 429 kts 315°
2026-04-17 12:15 47.15073 14.73352 40213 ft 427 kts 314°
2026-04-17 12:15 47.19588 14.66386 40210 ft 427 kts 315°
2026-04-17 12:16 47.24049 14.59487 40218 ft 428 kts 314°
2026-04-17 12:16 47.28587 14.52451 40200 ft 427 kts 315°
2026-04-17 12:17 47.32957 14.45657 40206 ft 428 kts 315°
2026-04-17 12:17 47.37244 14.38975 40230 ft 428 kts 315°
2026-04-17 12:18 47.41377 14.32515 40216 ft 429 kts 314°
2026-04-17 12:18 47.45907 14.25419 40206 ft 428 kts 314°
2026-04-17 12:19 47.50301 14.18516 40207 ft 428 kts 314°
2026-04-17 12:19 47.54462 14.11964 40222 ft 427 kts 314°
2026-04-17 12:20 47.58759 14.05180 40211 ft 427 kts 314°
2026-04-17 12:20 47.62978 13.98503 40203 ft 430 kts 314°
2026-04-17 12:21 47.67149 13.91882 40207 ft 430 kts 314°
2026-04-17 12:21 47.71371 13.85164 40203 ft 428 kts 314°
2026-04-17 12:22 47.75697 13.78264 40200 ft 428 kts 314°
2026-04-17 12:22 47.79883 13.71570 40206 ft 428 kts 314°
2026-04-17 12:23 47.84067 13.64864 40200 ft 427 kts 314°
2026-04-17 12:23 47.88242 13.58154 40198 ft 428 kts 314°
2026-04-17 12:24 47.92441 13.51386 40197 ft 428 kts 314°
2026-04-17 12:24 47.96669 13.44556 40180 ft 429 kts 314°
2026-04-17 12:25 48.00925 13.37664 40200 ft 429 kts 314°
2026-04-17 12:25 48.05058 13.30952 40184 ft 429 kts 313°
2026-04-17 12:26 48.09372 13.23927 40175 ft 429 kts 313°
2026-04-17 12:26 48.13508 13.17176 40199 ft 427 kts 313°
2026-04-17 12:27 48.17827 13.10107 40205 ft 428 kts 313°
2026-04-17 12:27 48.22075 13.03136 40193 ft 428 kts 313°
2026-04-17 12:28 48.26294 12.96052 40170 ft 428 kts 312°
2026-04-17 12:28 48.30461 12.88995 40182 ft 428 kts 312°
2026-04-17 12:29 48.34654 12.81878 40177 ft 429 kts 312°
2026-04-17 12:29 48.38852 12.74729 40192 ft 429 kts 312°
2026-04-17 12:30 48.43039 12.67583 40191 ft 429 kts 312°
2026-04-17 12:30 48.47198 12.60461 40176 ft 429 kts 312°
2026-04-17 12:31 48.51388 12.53272 40180 ft 429 kts 312°
2026-04-17 12:31 48.55535 12.46135 40172 ft 428 kts 312°
2026-04-17 12:32 48.59768 12.38831 40169 ft 431 kts 312°
2026-04-17 12:32 48.63849 12.31768 40188 ft 430 kts 311°
2026-04-17 12:33 48.68009 12.24551 40191 ft 430 kts 311°
2026-04-17 12:33 48.72209 12.17244 40183 ft 430 kts 311°
2026-04-17 12:34 48.75486 12.09148 40207 ft 435 kts 286°
2026-04-17 12:34 48.76442 11.99183 40183 ft 440 kts 282°
2026-04-17 12:35 48.77445 11.89614 40205 ft 436 kts 282°
2026-04-17 12:35 48.78487 11.79818 40213 ft 438 kts 282°
2026-04-17 12:37 48.82473 11.41588 40205 ft 424 kts 282°
2026-04-17 12:38 48.83383 11.32661 40213 ft 424 kts 281°
2026-04-17 12:38 48.84651 11.23580 39229 ft 429 kts 294°
2026-04-17 12:38 48.86140 11.19762 38444 ft 424 kts 310°
2026-04-17 12:39 48.88338 11.16536 37727 ft 423 kts 318°
2026-04-17 12:39 48.90717 11.13243 36887 ft 424 kts 317°
2026-04-17 12:39 48.93079 11.09958 36209 ft 424 kts 317°
2026-04-17 12:39 48.95392 11.06733 35550 ft 426 kts 317°
2026-04-17 12:40 48.97875 11.03261 34844 ft 427 kts 317°
2026-04-17 12:40 49.00248 10.99934 34081 ft 427 kts 317°
2026-04-17 12:40 49.02625 10.96596 33318 ft 427 kts 317°
2026-04-17 12:40 49.05067 10.93164 32460 ft 429 kts 317°
2026-04-17 12:41 49.07541 10.89682 31605 ft 430 kts 317°
2026-04-17 12:41 49.09938 10.86299 30892 ft 429 kts 317°
2026-04-17 12:41 49.12224 10.83067 30305 ft 426 kts 317°
2026-04-17 12:41 49.14680 10.79592 29695 ft 422 kts 317°
2026-04-17 12:42 49.17101 10.76162 29079 ft 418 kts 317°
2026-04-17 12:42 49.19418 10.72872 28442 ft 415 kts 317°
2026-04-17 12:42 49.21581 10.69518 27800 ft 412 kts 315°
2026-04-17 12:42 49.23851 10.65941 27176 ft 408 kts 315°
2026-04-17 12:43 49.26017 10.62526 26635 ft 403 kts 315°
2026-04-17 12:43 49.28061 10.59303 26147 ft 397 kts 315°
2026-04-17 12:43 49.30148 10.56007 25653 ft 391 kts 315°
2026-04-17 12:43 49.32236 10.52706 25144 ft 385 kts 315°
2026-04-17 12:44 49.34218 10.49568 24621 ft 380 kts 315°
2026-04-17 12:44 49.36100 10.46503 24174 ft 375 kts 310°
2026-04-17 12:44 49.37775 10.42907 24029 ft 388 kts 306°
2026-04-17 12:44 49.39457 10.39231 23812 ft 378 kts 306°
2026-04-17 12:45 49.41042 10.35760 23607 ft 366 kts 307°
2026-04-17 12:45 49.42487 10.32596 23434 ft 361 kts 306°
2026-04-17 12:45 49.44077 10.29106 23261 ft 364 kts 306°
2026-04-17 12:45 49.45635 10.25683 23086 ft 362 kts 306°
2026-04-17 12:46 49.47136 10.22379 22918 ft 362 kts 306°
2026-04-17 12:46 49.48703 10.18924 22735 ft 360 kts 306°
2026-04-17 12:46 49.50270 10.15465 22557 ft 359 kts 306°
2026-04-17 12:46 49.51814 10.12055 22382 ft 358 kts 306°
2026-04-17 12:47 49.53291 10.08787 22215 ft 359 kts 306°
2026-04-17 12:47 49.54818 10.05407 21675 ft 362 kts 306°
2026-04-17 12:47 49.56362 10.01982 21152 ft 359 kts 305°
2026-04-17 12:47 49.57875 9.98621 20643 ft 354 kts 306°
2026-04-17 12:48 49.59292 9.95469 20166 ft 350 kts 305°
2026-04-17 12:48 49.60739 9.92246 19691 ft 346 kts 306°
2026-04-17 12:48 49.62151 9.89101 19238 ft 343 kts 305°
2026-04-17 12:48 49.63553 9.85972 18788 ft 341 kts 305°
2026-04-17 12:49 49.64937 9.82877 18337 ft 340 kts 306°
2026-04-17 12:49 49.66342 9.79735 17890 ft 338 kts 305°
2026-04-17 12:49 49.67730 9.76629 17447 ft 337 kts 305°
2026-04-17 12:49 49.69144 9.73458 16993 ft 337 kts 305°
2026-04-17 12:50 49.70469 9.70484 16556 ft 334 kts 305°
2026-04-17 12:50 49.71851 9.67378 16092 ft 331 kts 305°
2026-04-17 12:50 49.73235 9.64264 15628 ft 330 kts 305°
2026-04-17 12:50 49.74585 9.61226 15164 ft 328 kts 306°
2026-04-17 12:51 49.75967 9.58112 14692 ft 326 kts 305°
2026-04-17 12:51 49.77309 9.55082 14226 ft 325 kts 305°
2026-04-17 12:51 49.78606 9.52151 13763 ft 323 kts 305°
2026-04-17 12:51 49.79897 9.49229 13304 ft 321 kts 305°
2026-04-17 12:52 49.81224 9.46220 12827 ft 319 kts 305°
2026-04-17 12:52 49.82539 9.43237 12367 ft 318 kts 305°
2026-04-17 12:52 49.83867 9.40218 11906 ft 316 kts 305°
2026-04-17 12:52 49.85151 9.37303 11482 ft 315 kts 305°
2026-04-17 12:53 49.86319 9.34254 11151 ft 320 kts 291°
2026-04-17 12:53 49.87025 9.30688 11221 ft 332 kts 287°
2026-04-17 12:53 49.87711 9.27120 11198 ft 326 kts 287°
2026-04-17 12:53 49.88356 9.23744 10909 ft 319 kts 287°
2026-04-17 12:54 49.89044 9.20140 9994 ft 330 kts 287°
2026-04-17 12:54 49.89715 9.16617 9836 ft 314 kts 287°
2026-04-17 12:54 49.90350 9.13273 9839 ft 296 kts 286°
2026-04-17 12:54 49.90929 9.10218 9757 ft 284 kts 287°
2026-04-17 12:55 49.91500 9.07214 9425 ft 282 kts 286°
2026-04-17 12:55 49.92068 9.04212 9034 ft 282 kts 286°
2026-04-17 12:55 49.92691 9.01174 8649 ft 281 kts 294°
2026-04-17 12:55 49.93930 8.98722 8294 ft 279 kts 323°
2026-04-17 12:56 49.95739 8.97533 8149 ft 272 kts 350°
2026-04-17 12:56 49.97674 8.97752 7635 ft 277 kts 19°
2026-04-17 12:56 49.99345 8.99384 7304 ft 275 kts 43°
2026-04-17 12:56 50.00706 9.01478 7305 ft 260 kts 44°
2026-04-17 12:57 50.02021 9.03508 7265 ft 248 kts 44°
2026-04-17 12:57 50.03281 9.05463 7088 ft 244 kts 44°
2026-04-17 12:57 50.04521 9.07390 6828 ft 243 kts 44°
2026-04-17 12:57 50.05810 9.09385 6541 ft 242 kts 45°
2026-04-17 12:58 50.07123 9.11411 6264 ft 242 kts 44°
2026-04-17 12:58 50.08394 9.13322 5990 ft 241 kts 39°
2026-04-17 12:58 50.09913 9.14390 5685 ft 240 kts
2026-04-17 12:58 50.11583 9.14037 5445 ft 237 kts 334°
2026-04-17 12:59 50.12891 9.12285 5163 ft 236 kts 301°
2026-04-17 12:59 50.13480 9.09702 4970 ft 232 kts 284°
2026-04-17 12:59 50.13892 9.07109 4966 ft 234 kts 284°
2026-04-17 12:59 50.14321 9.04378 4956 ft 235 kts 282°
2026-04-17 13:00 50.14161 9.01667 4957 ft 230 kts 250°
2026-04-17 13:00 50.13618 8.99352 4932 ft 211 kts 251°
2026-04-17 13:00 50.13121 8.97189 4969 ft 195 kts 250°
2026-04-17 13:00 50.12628 8.95060 5012 ft 195 kts 250°
2026-04-17 13:01 50.12147 8.92995 4852 ft 195 kts 250°
2026-04-17 13:01 50.11669 8.90956 4587 ft 193 kts 250°
2026-04-17 13:01 50.11177 8.88869 4321 ft 192 kts 250°
2026-04-17 13:01 50.10677 8.86740 4050 ft 190 kts 250°
2026-04-17 13:02 50.10195 8.84696 3788 ft 190 kts 250°
2026-04-17 13:02 50.09723 8.82697 3533 ft 190 kts 249°
2026-04-17 13:02 50.09228 8.80612 3262 ft 190 kts 250°
2026-04-17 13:02 50.08726 8.78484 2983 ft 191 kts 250°
2026-04-17 13:03 50.08242 8.76435 2721 ft 189 kts 250°
2026-04-17 13:03 50.07770 8.74437 2459 ft 188 kts 250°
2026-04-17 13:03 50.07285 8.72397 2188 ft 186 kts 249°
2026-04-17 13:03 50.06818 8.70427 1923 ft 179 kts 250°
2026-04-17 13:04 50.06395 8.68639 1678 ft 155 kts 250°
2026-04-17 13:04 50.06015 8.67049 1461 ft 142 kts 249°
2026-04-17 13:04 50.05642 8.65490 1271 ft 139 kts 249°
2026-04-17 13:04 50.05277 8.63960 1089 ft 138 kts 249°
2026-04-17 13:05 50.04930 8.62517 916 ft 137 kts 249°
2026-04-17 13:05 50.04559 8.60978 715 ft 137 kts 251°
2026-04-17 13:05 50.04206 8.59467 521 ft 136 kts 249°
2026-04-17 13:05 50.03841 8.57983 372 ft 130 kts 247°
2026-04-17 13:06 50.03584 8.56896 350 ft 75 kts 249°
2026-04-17 13:06 50.03438 8.56268 347 ft 23 kts 255°
2026-04-17 13:06 50.03445 8.55988 345 ft 25 kts 279°
2026-04-17 13:06 50.03458 8.55879 345 ft 1 kts 280°
2026-04-17 13:07 50.03462 8.55840 345 ft 5 kts 280°
2026-04-17 13:07 50.03470 8.55766 345 ft 8 kts 281°
2026-04-17 13:07 50.03519 8.55703 346 ft 9 kts 355°
2026-04-17 13:07 50.03566 8.55785 347 ft 11 kts 69°
2026-04-17 13:08 50.03601 8.55932 347 ft 14 kts 70°
2026-04-17 13:08 50.03643 8.56108 349 ft 17 kts 70°
2026-04-17 13:08 50.03691 8.56305 349 ft 17 kts 70°
2026-04-17 13:08 50.03732 8.56476 353 ft 15 kts 70°
2026-04-17 13:09 50.03770 8.56639 354 ft 14 kts 70°
2026-04-17 13:09 50.03806 8.56793 355 ft 13 kts 70°
2026-04-17 13:09 50.03840 8.56932 357 ft 11 kts 69°
2026-04-17 13:09 50.03865 8.57037 359 ft 9 kts 69°
2026-04-17 13:10 50.03888 8.57133 360 ft 8 kts 70°
2026-04-17 13:10 50.03912 8.57231 361 ft 15 kts 70°
2026-04-17 13:10 50.03967 8.57460 364 ft 22 kts 70°
2026-04-17 13:10 50.04024 8.57702 369 ft 20 kts 70°
2026-04-17 13:11 50.04077 8.57920 371 ft 18 kts 70°
2026-04-17 13:11 50.04122 8.58100 374 ft 15 kts 61°
2026-04-17 13:11 50.04208 8.58188 375 ft 13 kts 22°
2026-04-17 13:11 50.04246 8.58206 376 ft 7 kts 13°
2026-04-17 13:12 50.04351 8.58166 378 ft 15 kts 339°
2026-04-17 13:12 50.04557 8.58048 381 ft 12 kts 339°
2026-04-17 13:12 50.04631 8.58003 381 ft 6 kts 338°
2026-04-17 13:13 50.04636 8.57999 381 ft 0 kts 339°
2026-04-17 13:13 50.04646 8.57993 381 ft 2 kts 339°
2026-04-17 13:13 50.04669 8.57979 381 ft 4 kts 338°
2026-04-17 13:13 50.04699 8.57953 381 ft 6 kts 318°
2026-04-17 13:14 50.04697 8.57860 379 ft 11 kts 253°
2026-04-17 13:14 50.04664 8.57714 378 ft 15 kts 250°
2026-04-17 13:14 50.04626 8.57563 377 ft 12 kts 251°
2026-04-17 13:14 50.04630 8.57469 378 ft 6 kts 308°
2026-04-17 13:15 50.04655 8.57431 379 ft 3 kts 316°
2026-04-17 13:15 50.04670 8.57408 380 ft 3 kts 317°
2026-04-17 13:15 50.04691 8.57377 381 ft 4 kts 317°
2026-04-17 13:15 50.04702 8.57348 382 ft 2 kts 288°
2026-04-17 13:16 50.04707 8.57311 382 ft 1 kts 284°
2026-04-17 13:16 50.04709 8.57292 382 ft 1 kts 279°
2026-04-17 13:16 50.04710 8.57288 382 ft 0 kts 279°